,,,PA_Meas_PMT16A,,PR_Meas_QMR101_102,,RH_Meas_QMH101,,SR_Meas_QMS101,,TA_Meas_QMH101,,GenWind,,GenWind,
date,time,status,PA,status,PR,status,RH,status,SR,status,TA,status,DirAvg,status,SpdAvg,
2011-08-28, 00:00:04,VALID,1001.25,VALID,0,VALID,54.3153,VALID,0,VALID,28.2508,VALID,184,VALID,3.96992,
2011-08-28, 00:01:04,VALID,1001.27,VALID,0,VALID,54.1398,VALID,0,VALID,28.2682,VALID,186,VALID,5.54219,
2011-08-28, 00:02:04,VALID,1001.25,VALID,0,VALID,54.1245,VALID,0,VALID,28.2682,VALID,185,VALID,5.90391,
2011-08-28, 00:03:04,VALID,1001.23,VALID,0,VALID,54.0406,VALID,0,VALID,28.2508,VALID,165,VALID,6.07305,
2011-08-28, 00:04:04,VALID,1001.29,VALID,0,VALID,54.7044,VALID,0,VALID,28.1922,VALID,157,VALID,3.57383,
2011-08-28, 00:05:04,VALID,1001.31,VALID,0,VALID,57.6723,VALID,0,VALID,27.9361,VALID,146,VALID,2.69531,
2011-08-28, 00:06:04,VALID,1001.29,VALID,0,VALID,59.5187,VALID,0,VALID,27.6431,VALID,132,VALID,2.64883,
2011-08-28, 00:07:04,VALID,1001.28,VALID,0,VALID,61.449,VALID,0,VALID,27.3326,VALID,126,VALID,2.63047,
2011-08-28, 00:08:04,VALID,1001.29,VALID,0,VALID,62.9138,VALID,0,VALID,27.0201,VALID,132,VALID,2.39492,
2011-08-28, 00:09:04,VALID,1001.28,VALID,0,VALID,63.715,VALID,0,VALID,26.8032,VALID,125,VALID,1.67656,
2011-08-28, 00:10:04,VALID,1001.24,VALID,0,VALID,64.6839,VALID,0,VALID,26.6469,VALID,116,VALID,0.870703,
2011-08-28, 00:11:04,VALID,1001.22,VALID,0,VALID,65.8284,VALID,0,VALID,26.5102,VALID,118,VALID,1.26641,
2011-08-28, 00:12:04,VALID,1001.2,VALID,0,VALID,66.2404,VALID,0,VALID,26.3736,VALID,148,VALID,0.876562,
2011-08-28, 00:13:04,VALID,1001.16,VALID,0,VALID,66.7821,VALID,0,VALID,26.2564,VALID,148,VALID,1.19609,
2011-08-28, 00:14:04,VALID,1001.15,VALID,0,VALID,66.7973,VALID,0.112286,VALID,26.1763,VALID,129,VALID,1.16445,
2011-08-28, 00:15:04,VALID,1001.11,VALID,0,VALID,65.1798,VALID,0.112286,VALID,26.1588,VALID,172,VALID,1.50586,
2011-08-28, 00:16:04,VALID,1001.08,VALID,0,VALID,61.037,VALID,0.112286,VALID,26.6665,VALID,187,VALID,5.29336,
2011-08-28, 00:17:04,VALID,1001.08,VALID,0,VALID,58.7023,VALID,0,VALID,27.2113,VALID,185,VALID,5.70195,
2011-08-28, 00:18:04,VALID,1001.06,VALID,0,VALID,57.6952,VALID,0,VALID,27.5649,VALID,181,VALID,5.50781,
2011-08-28, 00:19:04,VALID,1001.01,VALID,0,VALID,56.8864,VALID,0,VALID,27.7603,VALID,176,VALID,5.60703,
2011-08-28, 00:20:04,VALID,1000.98,VALID,0,VALID,56.4668,VALID,0.112286,VALID,27.8558,VALID,189,VALID,5.1375,
2011-08-28, 00:21:04,VALID,1001.01,VALID,0,VALID,56.1922,VALID,0.112286,VALID,27.9556,VALID,188,VALID,5.61484,
2011-08-28, 00:22:04,VALID,1000.99,VALID,0,VALID,56.1693,VALID,0.112286,VALID,27.9926,VALID,187,VALID,4.57461,
2011-08-28, 00:23:04,VALID,1000.96,VALID,0,VALID,56.1845,VALID,0.112286,VALID,28.0142,VALID,197,VALID,4.35781,
2011-08-28, 00:24:04,VALID,1000.96,VALID,0,VALID,55.8107,VALID,0,VALID,28.0359,VALID,176,VALID,5.50078,
2011-08-28, 00:25:04,VALID,1000.92,VALID,0,VALID,55.9938,VALID,0,VALID,28.0359,VALID,180,VALID,4.75469,
2011-08-28, 00:26:04,VALID,1000.89,VALID,0,VALID,56.215,VALID,0,VALID,28.0142,VALID,190,VALID,4.23984,
2011-08-28, 00:27:04,VALID,1000.9,VALID,0,VALID,56.4287,VALID,0,VALID,28.0164,VALID,185,VALID,4.62539,
2011-08-28, 00:28:04,VALID,1000.96,VALID,0,VALID,56.7262,VALID,0,VALID,27.9773,VALID,177,VALID,3.82695,
2011-08-28, 00:29:04,VALID,1000.93,VALID,0,VALID,56.5584,VALID,0,VALID,27.9556,VALID,192,VALID,3.71602,
2011-08-28, 00:30:04,VALID,1000.84,VALID,0,VALID,56.4592,VALID,0,VALID,27.9361,VALID,185,VALID,5.10469,
2011-08-28, 00:31:04,VALID,1000.9,VALID,0,VALID,56.3524,VALID,0,VALID,27.9773,VALID,183,VALID,5.25156,
2011-08-28, 00:32:04,VALID,1000.89,VALID,0,VALID,56.4134,VALID,0,VALID,27.9968,VALID,179,VALID,5.69375,
2011-08-28, 00:33:04,VALID,1000.94,VALID,0,VALID,56.5355,VALID,0,VALID,27.9968,VALID,172,VALID,4.56641,
2011-08-28, 00:34:04,VALID,1000.9,VALID,0,VALID,55.9175,VALID,0,VALID,27.9556,VALID,173,VALID,5.98906,
2011-08-28, 00:35:04,VALID,1000.91,VALID,0,VALID,56.4363,VALID,0,VALID,27.9752,VALID,185,VALID,4.63086,
2011-08-28, 00:36:04,VALID,1000.9,VALID,0,VALID,56.5202,VALID,0,VALID,27.9773,VALID,182,VALID,5.07422,
2011-08-28, 00:37:04,VALID,1000.88,VALID,0,VALID,56.505,VALID,0,VALID,27.9361,VALID,190,VALID,4.02578,
2011-08-28, 00:38:04,VALID,1000.9,VALID,0,VALID,56.7796,VALID,0,VALID,27.9382,VALID,169,VALID,3.7918,
2011-08-28, 00:39:04,VALID,1000.91,VALID,0,VALID,56.9246,VALID,0,VALID,27.9165,VALID,175,VALID,3.86289,
2011-08-28, 00:40:04,VALID,1000.93,VALID,0,VALID,57.3061,VALID,0,VALID,27.8363,VALID,162,VALID,2.7043,
2011-08-28, 00:41:04,VALID,1000.95,VALID,0,VALID,59.389,VALID,0.112286,VALID,27.7386,VALID,93,VALID,1.74141,
2011-08-28, 00:42:04,VALID,1000.92,VALID,0,VALID,61.7999,VALID,0,VALID,27.4261,VALID,62,VALID,2.3832,
2011-08-28, 00:43:04,VALID,1000.94,VALID,0,VALID,63.3869,VALID,0,VALID,26.9378,VALID,64,VALID,1.95664,
2011-08-28, 00:44:04,VALID,1000.97,VALID,0,VALID,64.9204,VALID,0,VALID,26.5473,VALID,71,VALID,2.56484,
2011-08-28, 00:45:04,VALID,1000.96,VALID,0,VALID,66.4311,VALID,0,VALID,26.2759,VALID,74,VALID,1.46563,
2011-08-28, 00:46:04,VALID,1000.96,VALID,0,VALID,67.1864,VALID,0.112286,VALID,26.0807,VALID,78,VALID,0.738281,
2011-08-28, 00:47:04,VALID,1000.97,VALID,0,VALID,67.8807,VALID,0,VALID,25.9245,VALID,95,VALID,1.24961,
2011-08-28, 00:48:04,VALID,1000.98,VALID,0,VALID,68.514,VALID,0,VALID,25.8073,VALID,61,VALID,1.33125,
2011-08-28, 00:49:04,VALID,1000.99,VALID,0,VALID,69.3151,VALID,0,VALID,25.6882,VALID,82,VALID,1.31367,
2011-08-28, 00:50:04,VALID,1000.97,VALID,0,VALID,69.3532,VALID,0,VALID,25.6121,VALID,72,VALID,0.810938,
2011-08-28, 00:51:04,VALID,1001.02,VALID,0,VALID,69.8415,VALID,0.112286,VALID,25.573,VALID,76,VALID,0.510938,
2011-08-28, 00:52:04,VALID,1001.01,VALID,0,VALID,70.3451,VALID,0,VALID,25.534,VALID,100,VALID,0.867969,
2011-08-28, 00:53:04,VALID,1001.04,VALID,0,VALID,70.4519,VALID,0.112286,VALID,25.454,VALID,109,VALID,1.23359,
2011-08-28, 00:54:04,VALID,1000.96,VALID,0,VALID,70.2612,VALID,0,VALID,25.4169,VALID,115,VALID,0.536719,
2011-08-28, 00:55:04,VALID,1000.95,VALID,0,VALID,70.3909,VALID,0,VALID,25.3993,VALID,115,VALID,0.376953,
2011-08-28, 00:56:04,VALID,1000.98,VALID,0,VALID,70.3375,VALID,0,VALID,25.3993,VALID,115,VALID,0.361719,
2011-08-28, 00:57:04,VALID,1000.94,VALID,0,VALID,70.1086,VALID,0,VALID,25.3778,VALID,115,VALID,0.321484,
2011-08-28, 00:58:04,VALID,1000.92,VALID,0,VALID,70.1238,VALID,0,VALID,25.3778,VALID,115,VALID,0.148438,
2011-08-28, 00:59:04,VALID,1000.92,VALID,0,VALID,70.1696,VALID,0,VALID,25.3778,VALID,115,VALID,0,
2011-08-28, 01:00:04,VALID,1000.9,VALID,0,VALID,70.0628,VALID,0,VALID,25.3583,VALID,115,VALID,0.234375,
2011-08-28, 01:01:04,VALID,1000.9,VALID,0,VALID,69.7958,VALID,0,VALID,25.3778,VALID,115,VALID,0.369922,
2011-08-28, 01:02:04,VALID,1000.88,VALID,0,VALID,69.4906,VALID,0,VALID,25.4188,VALID,125,VALID,0.755078,
2011-08-28, 01:03:04,VALID,1000.86,VALID,0,VALID,69.3151,VALID,0,VALID,25.4169,VALID,140,VALID,1.17422,
2011-08-28, 01:04:04,VALID,1000.83,VALID,0,VALID,69.0404,VALID,0,VALID,25.4754,VALID,151,VALID,1.03125,
2011-08-28, 01:05:04,VALID,1000.84,VALID,0,VALID,68.9641,VALID,0,VALID,25.5164,VALID,151,VALID,0.973828,
2011-08-28, 01:06:04,VALID,1000.8,VALID,0,VALID,69.0175,VALID,0,VALID,25.534,VALID,151,VALID,0.514844,
2011-08-28, 01:07:04,VALID,1000.76,VALID,0,VALID,69.2083,VALID,0,VALID,25.5535,VALID,151,VALID,0.429297,
2011-08-28, 01:08:04,VALID,1000.73,VALID,0,VALID,69.1625,VALID,0,VALID,25.5555,VALID,151,VALID,0.488672,
2011-08-28, 01:09:04,VALID,1000.73,VALID,0,VALID,68.9031,VALID,0,VALID,25.534,VALID,151,VALID,0.7,
2011-08-28, 01:10:04,VALID,1000.74,VALID,0,VALID,68.4835,VALID,0,VALID,25.534,VALID,155,VALID,0.872656,
2011-08-28, 01:11:04,VALID,1000.73,VALID,0,VALID,68.369,VALID,0,VALID,25.573,VALID,155,VALID,0.862109,
2011-08-28, 01:12:04,VALID,1000.72,VALID,0,VALID,68.5521,VALID,0,VALID,25.6336,VALID,154,VALID,0.899609,
2011-08-28, 01:13:04,VALID,1000.7,VALID,0,VALID,68.2851,VALID,0,VALID,25.6121,VALID,153,VALID,1.06836,
2011-08-28, 01:14:04,VALID,1000.69,VALID,0,VALID,68.4911,VALID,0,VALID,25.6316,VALID,153,VALID,1.14766,
2011-08-28, 01:15:04,VALID,1000.64,VALID,0,VALID,67.6976,VALID,0,VALID,25.6707,VALID,153,VALID,0.769141,
2011-08-28, 01:16:04,VALID,1000.6,VALID,0,VALID,68.3385,VALID,0,VALID,25.6902,VALID,153,VALID,0.677734,
2011-08-28, 01:17:04,VALID,1000.58,VALID,0,VALID,68.6971,VALID,0,VALID,25.6707,VALID,141,VALID,0.796875,
2011-08-28, 01:18:04,VALID,1000.6,VALID,0,VALID,68.3385,VALID,0,VALID,25.6921,VALID,141,VALID,0.766797,
2011-08-28, 01:19:04,VALID,1000.59,VALID,0,VALID,69.4219,VALID,0,VALID,25.6511,VALID,129,VALID,1.33164,
2011-08-28, 01:20:04,VALID,1000.58,VALID,0,VALID,69.811,VALID,0,VALID,25.6336,VALID,129,VALID,0.975391,
2011-08-28, 01:21:04,VALID,1000.55,VALID,0,VALID,69.7195,VALID,0,VALID,25.575,VALID,130,VALID,1.21406,
2011-08-28, 01:22:04,VALID,1000.54,VALID,0,VALID,69.895,VALID,0,VALID,25.5555,VALID,123,VALID,0.8375,
2011-08-28, 01:23:04,VALID,1000.49,VALID,0,VALID,69.7652,VALID,0,VALID,25.5164,VALID,91,VALID,0.934766,
2011-08-28, 01:24:04,VALID,1000.46,VALID,0,VALID,70.1544,VALID,0,VALID,25.4969,VALID,91,VALID,0.433203,
2011-08-28, 01:25:04,VALID,1000.48,VALID,0,VALID,69.2693,VALID,0,VALID,25.4169,VALID,111,VALID,1.32344,
2011-08-28, 01:26:04,VALID,1000.41,VALID,0,VALID,66.5837,VALID,0,VALID,25.4969,VALID,136,VALID,1.19297,
2011-08-28, 01:27:04,VALID,1000.43,VALID,0,VALID,66.4387,VALID,0,VALID,25.7897,VALID,102,VALID,1.55234,
2011-08-28, 01:28:04,VALID,1000.42,VALID,0,VALID,65.3324,VALID,0,VALID,25.946,VALID,147,VALID,0.565234,
2011-08-28, 01:29:04,VALID,1000.38,VALID,0,VALID,65.3782,VALID,0,VALID,26.0416,VALID,144,VALID,1.12539,
2011-08-28, 01:30:04,VALID,1000.34,VALID,0,VALID,64.4474,VALID,0,VALID,26.1803,VALID,161,VALID,2.17344,
2011-08-28, 01:31:04,VALID,1000.34,VALID,0,VALID,63.4174,VALID,0,VALID,26.5102,VALID,200,VALID,2.96289,
2011-08-28, 01:32:04,VALID,1000.31,VALID,0,VALID,62.3111,VALID,0,VALID,26.7661,VALID,170,VALID,2.64297,
2011-08-28, 01:33:04,VALID,1000.32,VALID,0,VALID,61.6168,VALID,0,VALID,26.9594,VALID,188,VALID,2.37539,
2011-08-28, 01:34:04,VALID,1000.3,VALID,0,VALID,61.2353,VALID,0,VALID,27.1373,VALID,197,VALID,2.43242,
2011-08-28, 01:35:04,VALID,1000.34,VALID,0,VALID,60.4418,VALID,0,VALID,27.2545,VALID,173,VALID,2.86836,
2011-08-28, 01:36:04,VALID,1000.32,VALID,0,VALID,60.6936,VALID,0,VALID,27.2524,VALID,144,VALID,2.05938,
2011-08-28, 01:37:04,VALID,1000.31,VALID,0,VALID,61.6321,VALID,0,VALID,27.1743,VALID,111,VALID,1.75781,
2011-08-28, 01:38:04,VALID,1000.32,VALID,0,VALID,61.8686,VALID,0,VALID,27.0787,VALID,152,VALID,2.38359,
2011-08-28, 01:39:04,VALID,1000.32,VALID,0,VALID,61.9296,VALID,0,VALID,26.9985,VALID,141,VALID,1.43906,
2011-08-28, 01:40:04,VALID,1000.34,VALID,0,VALID,61.922,VALID,0,VALID,27.018,VALID,131,VALID,2.23633,
2011-08-28, 01:41:04,VALID,1000.3,VALID,0,VALID,61.3803,VALID,0,VALID,27.0591,VALID,147,VALID,3.20234,
2011-08-28, 01:42:04,VALID,1000.32,VALID,0,VALID,61.4947,VALID,0,VALID,27.1177,VALID,157,VALID,1.87266,
2011-08-28, 01:43:04,VALID,1000.29,VALID,0,VALID,61.3193,VALID,0,VALID,27.1373,VALID,174,VALID,1.38789,
2011-08-28, 01:44:04,VALID,1000.28,VALID,0,VALID,61.3956,VALID,0,VALID,27.1763,VALID,175,VALID,2.13867,
2011-08-28, 01:45:04,VALID,1000.25,VALID,0,VALID,61.304,VALID,0,VALID,27.274,VALID,174,VALID,3.43672,
2011-08-28, 01:46:04,VALID,1000.3,VALID,0,VALID,60.7241,VALID,0,VALID,27.3326,VALID,136,VALID,1.65156,
2011-08-28, 01:47:04,VALID,1000.32,VALID,0,VALID,61.2277,VALID,0,VALID,27.2545,VALID,152,VALID,1.45469,
2011-08-28, 01:48:04,VALID,1000.3,VALID,0,VALID,61.6778,VALID,0,VALID,27.3131,VALID,152,VALID,2.27305,
2011-08-28, 01:49:04,VALID,1000.29,VALID,0,VALID,62.0593,VALID,0,VALID,27.2349,VALID,149,VALID,1.83555,
2011-08-28, 01:50:04,VALID,1000.3,VALID,0,VALID,62.1814,VALID,0,VALID,27.0375,VALID,136,VALID,1.67266,
2011-08-28, 01:51:04,VALID,1000.29,VALID,0,VALID,63.2038,VALID,0,VALID,26.9008,VALID,143,VALID,2.55586,
2011-08-28, 01:52:04,VALID,1000.28,VALID,0,VALID,63.6005,VALID,0,VALID,26.8227,VALID,168,VALID,2.19727,
2011-08-28, 01:53:04,VALID,1000.2,VALID,0,VALID,64.1575,VALID,0,VALID,26.7076,VALID,157,VALID,2.64063,
2011-08-28, 01:54:04,VALID,1000.24,VALID,0,VALID,64.4093,VALID,0,VALID,26.7055,VALID,155,VALID,3.11641,
2011-08-28, 01:55:04,VALID,1000.23,VALID,0,VALID,63.4861,VALID,0,VALID,26.8618,VALID,200,VALID,2.99336,
2011-08-28, 01:56:04,VALID,1000.19,VALID,0,VALID,62.1661,VALID,0,VALID,27.1763,VALID,171,VALID,4.85352,
2011-08-28, 01:57:04,VALID,1000.24,VALID,0,VALID,61.6092,VALID,0,VALID,27.3305,VALID,192,VALID,2.47461,
2011-08-28, 01:58:04,VALID,1000.2,VALID,0,VALID,61.243,VALID,0,VALID,27.4498,VALID,196,VALID,2.96328,
2011-08-28, 01:59:04,VALID,1000.22,VALID,0,VALID,60.8539,VALID,0,VALID,27.4868,VALID,195,VALID,2.36133,
2011-08-28, 02:00:04,VALID,1000.23,VALID,0,VALID,61.1667,VALID,0,VALID,27.4672,VALID,161,VALID,2.5375,
2011-08-28, 02:01:04,VALID,1000.26,VALID,0,VALID,61.6778,VALID,0,VALID,27.3521,VALID,175,VALID,1.70078,
2011-08-28, 02:02:04,VALID,1000.26,VALID,0,VALID,62.1814,VALID,0,VALID,27.2133,VALID,186,VALID,1.93711,
2011-08-28, 02:03:04,VALID,1000.25,VALID,0,VALID,62.3416,VALID,0,VALID,27.2154,VALID,210,VALID,1.51602,
2011-08-28, 02:04:04,VALID,1000.32,VALID,0,VALID,62.4256,VALID,0,VALID,27.1547,VALID,195,VALID,1.58086,
2011-08-28, 02:05:04,VALID,1000.31,VALID,0,VALID,62.4027,VALID,0,VALID,27.1763,VALID,187,VALID,2.59258,
2011-08-28, 02:06:04,VALID,1000.34,VALID,0,VALID,62.3645,VALID,0,VALID,27.1743,VALID,186,VALID,3.00938,
2011-08-28, 02:07:04,VALID,1000.33,VALID,0,VALID,62.3111,VALID,0,VALID,27.2154,VALID,188,VALID,1.78906,
2011-08-28, 02:08:04,VALID,1000.32,VALID,0,VALID,62.4332,VALID,0,VALID,27.2154,VALID,177,VALID,1.77695,
2011-08-28, 02:09:04,VALID,1000.3,VALID,0,VALID,61.8915,VALID,0,VALID,27.274,VALID,176,VALID,3.10938,
2011-08-28, 02:10:04,VALID,1000.31,VALID,0,VALID,61.861,VALID,0,VALID,27.3131,VALID,180,VALID,2.78633,
2011-08-28, 02:11:04,VALID,1000.28,VALID,0,VALID,61.6244,VALID,0,VALID,27.3717,VALID,190,VALID,3.27656,
2011-08-28, 02:12:04,VALID,1000.3,VALID,0,VALID,61.5405,VALID,0,VALID,27.3696,VALID,191,VALID,2.54609,
2011-08-28, 02:13:04,VALID,1000.27,VALID,0,VALID,61.4261,VALID,0,VALID,27.3912,VALID,186,VALID,2.82539,
2011-08-28, 02:14:04,VALID,1000.28,VALID,0,VALID,61.2887,VALID,0,VALID,27.4107,VALID,205,VALID,2.92109,
2011-08-28, 02:15:04,VALID,1000.28,VALID,0,VALID,61.1743,VALID,0,VALID,27.4107,VALID,195,VALID,3.02773,
2011-08-28, 02:16:04,VALID,1000.33,VALID,0,VALID,61.2582,VALID,0,VALID,27.4303,VALID,182,VALID,2.40898,
2011-08-28, 02:17:04,VALID,1000.31,VALID,0,VALID,61.1972,VALID,0,VALID,27.4107,VALID,208,VALID,2.55078,
2011-08-28, 02:18:04,VALID,1000.32,VALID,0,VALID,61.2735,VALID,0,VALID,27.4107,VALID,222,VALID,1.9457,
2011-08-28, 02:19:04,VALID,1000.3,VALID,0,VALID,60.8233,VALID,0,VALID,27.4498,VALID,195,VALID,2.76016,
2011-08-28, 02:20:04,VALID,1000.34,VALID,0,VALID,60.7623,VALID,0,VALID,27.4889,VALID,191,VALID,2.1793,
2011-08-28, 02:21:04,VALID,1000.34,VALID,0,VALID,60.5868,VALID,0,VALID,27.5279,VALID,213,VALID,2.19531,
2011-08-28, 02:22:04,VALID,1000.32,VALID,0,VALID,60.9073,VALID,0,VALID,27.4672,VALID,230,VALID,1.47422,
2011-08-28, 02:23:04,VALID,1000.33,VALID,0,VALID,61.159,VALID,0,VALID,27.4477,VALID,221,VALID,1.37109,
2011-08-28, 02:24:04,VALID,1000.28,VALID,0,VALID,60.9912,VALID,0,VALID,27.4303,VALID,186,VALID,2.34336,
2011-08-28, 02:25:04,VALID,1000.23,VALID,0,VALID,60.8386,VALID,0,VALID,27.4498,VALID,183,VALID,3.1832,
2011-08-28, 02:26:04,VALID,1000.23,VALID,0,VALID,60.9225,VALID,0,VALID,27.4498,VALID,220,VALID,1.82734,
2011-08-28, 02:27:04,VALID,1000.2,VALID,0,VALID,61.1514,VALID,0,VALID,27.3891,VALID,221,VALID,2.05625,
2011-08-28, 02:28:04,VALID,1000.2,VALID,0,VALID,60.8462,VALID,0,VALID,27.4086,VALID,197,VALID,2.52031,
2011-08-28, 02:29:04,VALID,1000.17,VALID,0,VALID,61.037,VALID,0,VALID,27.4086,VALID,195,VALID,2.88281,
2011-08-28, 02:30:04,VALID,1000.14,VALID,0,VALID,61.2048,VALID,0,VALID,27.4086,VALID,232,VALID,2.18281,
2011-08-28, 02:31:04,VALID,1000.15,VALID,0,VALID,61.1209,VALID,0,VALID,27.3912,VALID,234,VALID,2.25078,
2011-08-28, 02:32:04,VALID,1000.15,VALID,0,VALID,61.4413,VALID,0,VALID,27.3521,VALID,230,VALID,1.82969,
2011-08-28, 02:33:04,VALID,1000.15,VALID,0,VALID,61.6168,VALID,0,VALID,27.3131,VALID,201,VALID,1.56836,
2011-08-28, 02:34:04,VALID,1000.15,VALID,0,VALID,61.777,VALID,0,VALID,27.2719,VALID,225,VALID,1.83125,
2011-08-28, 02:35:04,VALID,1000.15,VALID,0,VALID,61.6397,VALID,0,VALID,27.2545,VALID,216,VALID,1.92461,
2011-08-28, 02:36:04,VALID,1000.11,VALID,0,VALID,62.067,VALID,0,VALID,27.2349,VALID,222,VALID,1.98008,
2011-08-28, 02:37:04,VALID,1000.13,VALID,0,VALID,62.273,VALID,0,VALID,27.2154,VALID,223,VALID,1.12539,
2011-08-28, 02:38:04,VALID,1000.14,VALID,0,VALID,62.2043,VALID,0,VALID,27.1763,VALID,223,VALID,1.68008,
2011-08-28, 02:39:04,VALID,1000.13,VALID,0,VALID,62.1967,VALID,0,VALID,27.1763,VALID,233,VALID,1.72305,
2011-08-28, 02:40:04,VALID,1000.11,VALID,0,VALID,62.2577,VALID,0,VALID,27.1352,VALID,213,VALID,1.70234,
2011-08-28, 02:41:04,VALID,1000.11,VALID,0,VALID,62.54,VALID,0,VALID,27.1373,VALID,193,VALID,1.00469,
2011-08-28, 02:42:04,VALID,1000.15,VALID,0,VALID,62.5781,VALID,0,VALID,27.1177,VALID,212,VALID,1.57773,
2011-08-28, 02:43:04,VALID,1000.11,VALID,0,VALID,62.4103,VALID,0,VALID,27.1177,VALID,226,VALID,1.93438,
2011-08-28, 02:44:04,VALID,1000.15,VALID,0,VALID,62.395,VALID,0,VALID,27.1568,VALID,205,VALID,2.45156,
2011-08-28, 02:45:04,VALID,1000.12,VALID,0,VALID,62.273,VALID,0,VALID,27.1373,VALID,209,VALID,1.85352,
2011-08-28, 02:46:04,VALID,1000.11,VALID,0,VALID,62.4256,VALID,0,VALID,27.1568,VALID,223,VALID,1.86914,
2011-08-28, 02:47:04,VALID,1000.1,VALID,0,VALID,62.4256,VALID,0,VALID,27.1177,VALID,223,VALID,1.78516,
2011-08-28, 02:48:04,VALID,1000.09,VALID,0,VALID,62.5324,VALID,0,VALID,27.0766,VALID,226,VALID,1.9918,
2011-08-28, 02:49:04,VALID,1000.1,VALID,0,VALID,62.7613,VALID,0,VALID,27.0787,VALID,213,VALID,1.83398,
2011-08-28, 02:50:04,VALID,1000.06,VALID,0,VALID,62.7918,VALID,0,VALID,27.0591,VALID,219,VALID,1.89258,
2011-08-28, 02:51:04,VALID,1000.08,VALID,0,VALID,62.8681,VALID,0,VALID,27.0591,VALID,209,VALID,1.55625,
2011-08-28, 02:52:04,VALID,1000.04,VALID,0,VALID,62.891,VALID,0,VALID,27.0396,VALID,214,VALID,1.86875,
2011-08-28, 02:53:04,VALID,1000.06,VALID,0,VALID,63.0588,VALID,0,VALID,26.9985,VALID,214,VALID,1.3832,
2011-08-28, 02:54:04,VALID,1000.07,VALID,0,VALID,63.3793,VALID,0,VALID,27.0005,VALID,230,VALID,1.01875,
2011-08-28, 02:55:04,VALID,1000.05,VALID,0,VALID,63.0054,VALID,0,VALID,26.981,VALID,217,VALID,1.45625,
2011-08-28, 02:56:04,VALID,1000.06,VALID,0,VALID,63.0893,VALID,0,VALID,26.981,VALID,221,VALID,1.80625,
2011-08-28, 02:57:04,VALID,1000.07,VALID,0,VALID,63.1504,VALID,0,VALID,26.9789,VALID,191,VALID,1.56406,
2011-08-28, 02:58:04,VALID,1000.06,VALID,0,VALID,63.1961,VALID,0,VALID,26.9594,VALID,197,VALID,0.932422,
2011-08-28, 02:59:04,VALID,1000.01,VALID,0,VALID,63.0893,VALID,0,VALID,26.981,VALID,190,VALID,1.8293,
2011-08-28, 03:00:04,VALID,1000,VALID,0,VALID,63.2419,VALID,0,VALID,26.981,VALID,208,VALID,1.14297,
2011-08-28, 03:01:04,VALID,999.986,VALID,0,VALID,63.1733,VALID,0,VALID,26.9615,VALID,225,VALID,1.66094,
2011-08-28, 03:02:04,VALID,999.971,VALID,0,VALID,63.1122,VALID,0,VALID,26.9615,VALID,239,VALID,2.13945,
2011-08-28, 03:03:04,VALID,999.953,VALID,0,VALID,63.2572,VALID,0,VALID,26.9594,VALID,223,VALID,1.24883,
2011-08-28, 03:04:04,VALID,999.968,VALID,0,VALID,63.3716,VALID,0,VALID,26.9399,VALID,213,VALID,1.53672,
2011-08-28, 03:05:04,VALID,999.967,VALID,0,VALID,63.219,VALID,0,VALID,26.9419,VALID,247,VALID,1.68125,
2011-08-28, 03:06:04,VALID,999.957,VALID,0,VALID,63.303,VALID,0,VALID,26.9419,VALID,220,VALID,1.53906,
2011-08-28, 03:07:04,VALID,999.99,VALID,0,VALID,63.3106,VALID,0,VALID,26.9615,VALID,223,VALID,1.3668,
2011-08-28, 03:08:04,VALID,999.988,VALID,0,VALID,63.2953,VALID,0,VALID,26.9419,VALID,227,VALID,1.46914,
2011-08-28, 03:09:04,VALID,999.969,VALID,0,VALID,63.3182,VALID,0,VALID,26.9204,VALID,217,VALID,2.24258,
2011-08-28, 03:10:04,VALID,999.943,VALID,0,VALID,63.3411,VALID,0,VALID,26.9615,VALID,229,VALID,1.36133,
2011-08-28, 03:11:04,VALID,999.997,VALID,0,VALID,63.4784,VALID,0,VALID,26.9224,VALID,212,VALID,1.4832,
2011-08-28, 03:12:04,VALID,999.992,VALID,0,VALID,63.2724,VALID,0,VALID,26.9419,VALID,218,VALID,1.76875,
2011-08-28, 03:13:04,VALID,1000.03,VALID,0,VALID,63.3487,VALID,0,VALID,26.9008,VALID,230,VALID,1.80469,
2011-08-28, 03:14:04,VALID,1000.03,VALID,0,VALID,63.4556,VALID,0,VALID,26.9224,VALID,228,VALID,1.84297,
2011-08-28, 03:15:04,VALID,1000.06,VALID,0,VALID,63.5013,VALID,0,VALID,26.9224,VALID,220,VALID,2.05273,
2011-08-28, 03:16:04,VALID,1000.07,VALID,0,VALID,63.631,VALID,0,VALID,26.9029,VALID,237,VALID,1.26836,
2011-08-28, 03:17:04,VALID,1000.04,VALID,0,VALID,63.9362,VALID,0,VALID,26.8833,VALID,222,VALID,1.17969,
2011-08-28, 03:18:04,VALID,1000.03,VALID,0,VALID,63.6997,VALID,0,VALID,26.8638,VALID,233,VALID,2.24648,
2011-08-28, 03:19:04,VALID,1000.01,VALID,0,VALID,63.7073,VALID,0,VALID,26.8638,VALID,215,VALID,2.97266,
2011-08-28, 03:20:04,VALID,1000.03,VALID,0,VALID,63.6387,VALID,0,VALID,26.8833,VALID,215,VALID,2.73672,
2011-08-28, 03:21:04,VALID,1000.03,VALID,0,VALID,63.7226,VALID,0,VALID,26.8618,VALID,228,VALID,2.33047,
2011-08-28, 03:22:04,VALID,1000.05,VALID,0,VALID,63.6615,VALID,0,VALID,26.8833,VALID,221,VALID,2.59531,
2011-08-28, 03:23:04,VALID,1000.08,VALID,0,VALID,63.8218,VALID,0,VALID,26.8833,VALID,223,VALID,2.61562,
2011-08-28, 03:24:04,VALID,1000.04,VALID,0,VALID,63.9667,VALID,0,VALID,26.8638,VALID,204,VALID,1.72305,
2011-08-28, 03:25:04,VALID,1000.04,VALID,0,VALID,63.982,VALID,0,VALID,26.8247,VALID,213,VALID,1.29688,
2011-08-28, 03:26:04,VALID,1000.02,VALID,0,VALID,63.8981,VALID,0,VALID,26.8247,VALID,196,VALID,2.00742,
2011-08-28, 03:27:04,VALID,1000.04,VALID,0,VALID,63.7455,VALID,0,VALID,26.8443,VALID,201,VALID,1.98086,
2011-08-28, 03:28:04,VALID,1000.05,VALID,0,VALID,63.7073,VALID,0,VALID,26.8422,VALID,217,VALID,1.87461,
2011-08-28, 03:29:04,VALID,1000.07,VALID,0,VALID,63.8904,VALID,0,VALID,26.8443,VALID,170,VALID,1.21406,
2011-08-28, 03:30:04,VALID,1000.1,VALID,0,VALID,65.569,VALID,0,VALID,26.8247,VALID,126,VALID,1.39531,
2011-08-28, 03:31:04,VALID,1000.08,VALID,0,VALID,67.4382,VALID,0,VALID,26.6469,VALID,81,VALID,1.22422,
2011-08-28, 03:32:04,VALID,1000.12,VALID,0,VALID,68.781,VALID,0,VALID,26.3756,VALID,81,VALID,0.895703,
2011-08-28, 03:33:04,VALID,1000.16,VALID,0,VALID,70.1849,VALID,0,VALID,26.1412,VALID,81,VALID,0.841797,
2011-08-28, 03:34:04,VALID,1000.15,VALID,0,VALID,71.3446,VALID,0,VALID,25.9069,VALID,84,VALID,1.12852,
2011-08-28, 03:35:04,VALID,1000.14,VALID,0,VALID,72.2372,VALID,0,VALID,25.7116,VALID,95,VALID,0.76875,
2011-08-28, 03:36:04,VALID,1000.12,VALID,0,VALID,72.695,VALID,0,VALID,25.575,VALID,97,VALID,0.542188,
2011-08-28, 03:37:04,VALID,1000.12,VALID,0,VALID,73.0841,VALID,0,VALID,25.4774,VALID,97,VALID,0.625,
2011-08-28, 03:38:04,VALID,1000.11,VALID,0,VALID,73.1223,VALID,0,VALID,25.3778,VALID,97,VALID,0.807422,
2011-08-28, 03:39:04,VALID,1000.08,VALID,0,VALID,73.4427,VALID,0,VALID,25.3797,VALID,97,VALID,0.603906,
2011-08-28, 03:40:04,VALID,1000.11,VALID,0,VALID,73.725,VALID,0,VALID,25.3583,VALID,97,VALID,0.480469,
2011-08-28, 03:41:04,VALID,1000.1,VALID,0,VALID,73.8318,VALID,0,VALID,25.3388,VALID,97,VALID,0.121875,
2011-08-28, 03:42:04,VALID,1000.06,VALID,0,VALID,73.7403,VALID,0,VALID,25.3017,VALID,97,VALID,0.116797,
2011-08-28, 03:43:04,VALID,1000.06,VALID,0,VALID,73.7708,VALID,0,VALID,25.2626,VALID,97,VALID,0,
2011-08-28, 03:44:04,VALID,1000.09,VALID,0,VALID,73.9387,VALID,0,VALID,25.2236,VALID,97,VALID,0,
2011-08-28, 03:45:04,VALID,1000.08,VALID,0,VALID,73.8929,VALID,0,VALID,25.1845,VALID,97,VALID,0,
2011-08-28, 03:46:04,VALID,1000.1,VALID,0,VALID,73.6182,VALID,0,VALID,25.1436,VALID,97,VALID,0.108203,